Regional Weather Roundup
Issued by NWS

Home | Current Version | Previous Version | Text Only | Print | Product List | Glossary On
Versions: 1 2 3 4 5 6 7 8 9 10 11 12 13 14 15 16 17 18 19 20 21 22 23 24 25 26 27 28 29 30 31 32 33 34 35 36 37 38 39 40 41 42 43 44 45 46 47 48 49 50
000
ASHW40 PHFO 051610
RWRHI

WEATHER ROUNDUP FOR HAWAII
NATIONAL WEATHER SERVICE HONOLULU HI
600 AM HST TUE MAY 05 2015

THIS IS AN AUTOMATED REPORT THAT HAS NOT BEEN QUALITY CONTROLLED.

NOTE..."FAIR" INDICATES FEW OR NO CLOUDS BELOW 12,000 FEET WITH NO
SIGNIFICANT WEATHER AND/OR OBSTRUCTIONS TO VISIBILITY.

* - THESE SITES REPORT LIMITED FIELDS

HIZ001>004-051700-
KAUAI-NIIHAU-

CITY           SKY/WX    TMP DP  RH WIND       PRES   REMARKS
LIHUE APT      CLOUDY    73  67  81 E17       30.06R
PORT ALLEN*      N/A     72 N/A N/A NE7         N/A
POIPU*           N/A     73 N/A N/A NE9G18      N/A
PRINCEVILLE*     N/A     70 N/A N/A MISG        N/A
KOKOLE POINT*  NOT AVBL
MOLOAA DAIRY*  NOT AVBL
WAIMEA HTS*    NOT AVBL
PUU OPAE*      NOT AVBL
PUU LUA*       NOT AVBL
MAKAHA RIDGE*  NOT AVBL
$$

HIZ005>011-051700-
OAHU-

CITY           SKY/WX    TMP DP  RH WIND       PRES   REMARKS
HONOLULU       CLOUDY    71  67  87 N6        30.03R
KALAELOA       CLOUDY    72  64  76 VRB5      30.04R
KANEOHE MCB    CLOUDY    76  65  68 E13G21    30.02R
WHEELER FIELD  DRIZZLE   68  64  88 SE3       30.04R
BELLOWS*       NOT AVBL
KAHUKU*        NOT AVBL
WHEELER*       NOT AVBL
WAIANAE HARBOR NOT AVBL
DILLINGHAM*      N/A     72  63  73 MISG        N/A
KAHUKU TRN*      N/A     66  63  88 E12G22      N/A
KAWAILOA*        N/A     66  63  88 E9G20       N/A
KII*             N/A     73  66  78 E18G26      N/A
MAKUA RANGE*     N/A     73  63  68 SE5         N/A
OAHU FOREST NW NOT AVBL
SCHOFIELD BRK*   N/A     64  63  94 MISG        N/A
SCHOFIELD S*   NOT AVBL
WAIANAE VLY*   NOT AVBL
KUAOKALA*      NOT AVBL
HONOULIUULI*   NOT AVBL
MOKUOLOE IS*     N/A    N/A N/A N/A MISG        N/A
PALEHUA*       NOT AVBL
WAIAWA PHB*    NOT AVBL
$$

HIZ012>013-051700-
MOLOKAI-

CITY           SKY/WX    TMP DP  RH WIND       PRES   REMARKS
MOLOKAI AIRPT  PTCLDY    72  58  61 NE7       30.02R
KALAUPAPA      NOT AVBL
MAKAPULAPAI*   NOT AVBL
MOLOKAI 1*     NOT AVBL
PUU ALII*      NOT AVBL
$$

HIZ016-051700-
KAHOOLAWE-

CITY           SKY/WX    TMP DP  RH WIND       PRES   REMARKS
KAHOOLAWE*     NOT AVBL
HAKIOAWA*      NOT AVBL
HONOKANAIA*      N/A     75  63  66 NE20G41   30.01R
KANELOA*         N/A     72  64  78 MISG      29.23S
KEALIALALO*    NOT AVBL
LUA MAKIKA*    NOT AVBL
$$

HIZ014>015-051700-
LANAI-

CITY           SKY/WX    TMP DP  RH WIND       PRES   REMARKS
LANAI CITY     FAIR      64  61  90 NE7       30.06R
LANAI 1*       NOT AVBL
$$

HIZ017>028-051700-
MAUI-

CITY           SKY/WX    TMP DP  RH WIND       PRES   REMARKS
KAHULUI        CLEAR     67  59  75 SE3       30.02R
KAPALUA-W MAUI NOT AVBL
HANA AIRPORT   CLOUDY    72  66  83 E3        30.08S
HANA*          NOT AVBL
HALEAKALA SUMM   N/A     37  36  93 E20         N/A  WCI  27
MAALAEA BAY*   NOT AVBL
HALEAKALA*     NOT AVBL
KAUPO GAP*     NOT AVBL
KULA 1*        NOT AVBL
$$

HIZ023>026-051700-
BIG ISLAND OF HAWAII COAST AND LOWER SLOPES-

CITY           SKY/WX    TMP DP  RH WIND       PRES   REMARKS
KAILUA KONA    CLEAR     71  60  68 N5        29.98R
HILO           CLOUDY    68  62  81 SW6       30.06R
HONOKAA*       NOT AVBL
KAWAIHAE MWT*  NOT AVBL
KAWAIHAE*        N/A     75 N/A N/A NW6         N/A
SOUTH POINT*   NOT AVBL
UPOLU AIRPORT* NOT AVBL
KAMUELA*       SUNNY     57  52  82 E12       30.10S
HAKALAU*         N/A     46  45  93 S5G15       N/A
KALOKO-HONOKO* NOT AVBL
PALI 2*          N/A     61  52  72 N12G20      N/A
KEALAKOMO*       N/A     72  57  60 VRB13G18    N/A
KAUPULEHU*     NOT AVBL
KAPAPALA*        N/A     67  53  59 N10G18      N/A
LOWER KAHUKU*  NOT AVBL
PUHE CS*       NOT AVBL
PUHO CS*       NOT AVBL
PTA KEAMUKU*     N/A     54  46  76 CALM        N/A
WAIKOLOA*      NOT AVBL
$$

HIZ027>028-051700-
BIG ISLAND OF HAWAII INTERIOR AND SUMMMITS-

CITY           SKY/WX    TMP DP  RH WIND       PRES   REMARKS
BRADSHAW FIELD CLOUDY    40  35  84 SE6       30.29R
MK VISITOR CEN NOT AVBL
MAUNA KEA*       N/A     37 -24   6 SE9         N/A
MAUNA LOA*       N/A     43 -27   4 MISG        N/A
MAUNA LOA 1*   NOT AVBL
PTA KIPUKA*      N/A     46  41  81 SE8         N/A
PTA RANGE 17*    N/A     48  41  76 SE13G20     N/A
PTA WEST*        N/A     70  55  60 SE18G26     N/A
NENE CABIN*    NOT AVBL
AHUMOA*        NOT AVBL
PTA PORTABLE*  NOT AVBL
PUU MALI*        N/A     46  39  76 S10         N/A
$$

HIC003-051700-
NORTHWEST ISLANDS-

CITY           SKY/WX    TMP DP  RH WIND       PRES   REMARKS
MIDWAY ISLAND  MOCLDY   N/A N/A N/A NE6       30.08S
MIDWAY NOS*    NOT AVBL
FRENCH FRIGATE NOT AVBL
$$

PHZ110>124-180-051700-
BUOY REPORTS

STATION/POSITION TIME  TEMP    WIND        PRES    WAVE   SWELL
                       AIR SEA DIR/SP/G            HT/PER HT/DIR
                 (UTC) (F)     (DEG/KT/KT) (MB)    (FT/S) (FT/D)
BUOY 51001       NOT AVBL
BUOY 51101       1600   75 76  100/ 16/ 17 1017.5R   5/ 9   3/ 90
BUOY 51100       NOT AVBL
BUOY 51002       1600   78 79   90/ 21/ 25 1013.7R   9/ 9   5/ 90
BUOY 51003       1500   78 79  130/ 16/ 19 1014.8F   7/ 8   3
BUOY 51004       1550   75 77   90/ 17/ 23 1014.7R   9/ 9   5/ 60
BARBERS PT BUOY  NOT AVBL
WAIMEA BAY BUOY  1500      77                N/A     5/ 8   2/350
KAILUA BAY BUOY  1600      77                N/A     9/ 7   2/ 30
LANAI BUOY       NOT AVBL
BARBERS PT 2     1600      77                N/A     5/ 6   2/190
PAUWELA MAUI     1500      76                N/A     8/ 8   2/ 40
HILO             1500      77                N/A     9/ 8   2/ 70
KANEOHE BAY BUOY 1600      76                N/A     7/ 7   2/ 60
HANALEI KAUAI    1600      78                N/A     8/ 8   2/ 60
KAHULUI HARBOR   1600   74 76   30/ 11/ 14 1016.0R
HONOLULU HARBOR  1600   76 78   40/  5/ 10 1016.8R
KILO NALU        NOT AVBL
HILO HARBOR      1600   68 76  150/  5/  7 1017.3
MOKUOLOE         1600      77              1016.8R
NAWILIWILI       1600   73 78   80/ 14/ 17 1017.2R
WHOTS BUOY       NOT AVBL
BUOY 51028       NOT AVBL
$$

......................KEY........................................
  SKY/WX - SKY CONDITIONS/PRESENT WEATHER
  TMP    - TEMPERATURE IN FAHRENHEIT
  DWPT   - DEWPOINT IN FAHRENHEIT
  RH     - RELATIVE HUMIDITY IN PERCENT
  WIND   - DIRECTION AND SPEED /MPH FOR ISLANDS...KTS FOR BUOYS/
  PRES   - MEAN SEA LEVEL PRESSURE IN INCHES OF HG
  VSB    - VISIBILITY IN MILES
  HX     - HEAT INDEX
  WCI    - WIND CHILL INDEX
  VRB    - VARIABLE WIND DIRECTION
  N/A    - NOT AVAILABLE



USA.gov is the U.S. government's official web portal to all federal, state and local government web resources and services.